Location: Cudham
(51.3000°N, 0.0667°E)
Time: 17:03:03
(UTC+00:00)

USA 229 DEB - Pass Details

Date: 24 April 2026
Orbit: 844 x 1364 km, 63.4° (Epoch: 10 January)

Event Time Altitude Azimuth Distance (km) Brightness Sun altitude
Rises 00:12:39 0° 314° (NW) 3,984 7.2 -25.8°
Reaches altitude 10° 00:15:19 10° 309° (NW) 3,093 6.5 -25.8°
Maximum altitude 00:22:28 49° 238° (WSW) 1,596 4.3 -25.7°
Enters shadow 00:23:37 46° 214° (SW) 1,670 4.3 -25.7°
